SL-12 R/B(AUX MOTOR), 29680

Orbit data source: Space-Track

SL-12 R/B(AUX MOTOR), 29680 is space debris in HEO originally from a launch on Mon, 25 Dec 2006 UTC launched from the Tyuratam Missile And Space Complex (TTMTR). Debris objects in space refer to the collection of defunct objects orbiting the Earth. Examples of debris include non-operational satellites, rocket bodies, and fragments generated from explosions, collisions, or faulty payload assembly.

Loading next visibility...
Identifier
29680, 2006-062G
Orbit
HEO
Country
Flag of CISCIS
Related business
Manufacturer
RKKE
Mission
Spacecraft
Bus & Motor
SOZ, Unknown motor
Mass
56 kg wet, 56 kg dry
Launch date (UTC)
2006-12-25 (19 years ago)
Launch vehicle
Unknown
Launch site
Tyuratam Missile And Space Complex (TTMTR)
Object type
Payload
Rocket body
Debris
Shape & HBR
Cyl, 0.6 m
Radar Cross Section
0.660 m², Medium (>0.1 m² and < 1m²)

Expand to show TLE details & history
Last TLE update: 1 day ago

TLE from 1 day ago
0 SL-12 R/B(AUX MOTOR)
1 29680U 06062G   25303.03576029  .00000230  00000-0  52697-3 0  9991
2 29680  65.1545 118.2174 5699188 222.2190  76.1019  4.25863716190636
Epoch: 2025-10-30T00:51Z
TLE epoch observation values (Epoch: 2025-10-30T00:51:29.689Z)
Latitude
Longitude
66.7245°
Altitude
12,416.199 km
Speed
4.199 km/s
True Right ascension
07h 52m 47s
True Declination
0° 00' 00"
Sunlit
Object was in daylight at epoch
Visualization orbit readout
Latitude
Unknown
Longitude
Unknown
Altitude
Unknown
Speed
Unknown
Apparent Right ascension
Unknown
Apparent Declination
Unknown
Sunlit
N/A
Visualization observer readout
Local Sidereal Time
00:26:22
Azimuth
Unknown
Elevation
Unknown
Doppler factor
Unknown
Orbital elements
Apogee altitude
18,860.593 km
Perigee altitude
536.044 km
Semi-major axis
16,076.456 km
Eccentricity
0.56992
Inclination
65.1545°
RAAN
118.2174°
Arg. of periapsis
222.219°
True anomaly
137.85559°
Mean anomaly
76.1019°
Eccentric anomaly
107.2817°
Mean motion
1.06477 °/min
Orbital period
338.1 mins
BSTAR
0.00052697
Loading maneuver chart data...
Computing Atmospheric mass density...
Loading historical data...
Loading historical data...
Loading historical data...
Loading historical data...
Loading historical data...
Loading historical data...
Loading historical data...

Documentation

Showing up to 5 results
|